Find Starlink 31058

NORAD ID: 58677 Int'l Des: 2023-211 Owner: SPXS Country: US Constellation: starlink operational
LEOCIRCULAR

Current View

Loading 3D Globe...

About Starlink 31058

Starlink 31058 (NORAD 58677) is a starlink constellation satellite (v2 mini) launched Dec 29, 2023 by SPXS of US. It operates in LEO, CIRCULAR orbit with a mass of 730.00 kg.

About Starlink 31058

Description loading...

Upcoming Passes

Passes for default location (London). Set your location on the main map for personalized predictions.

Altitude History

Loading altitude history...

Two-Line Element Set

1 58677U 23211L 26177.73146000 -.00005308 00000-0 -18342-3 0 9995
2 58677 43.0021 189.2505 0001381 283.7937 76.2761 15.27592944139142
Epoch: Jun 26, 2026 • Age: 18 hours

Current Status

Altitude 486.3 km
Velocity 7.63 km/s
Sub-Earth Point 39.42°N, 141.31°W
Launch Date Dec 29, 2023
Age 2.4 years
Type internet

Technical Details

Classification Payload
Mass 730.00 kg
Dry Mass 700.00 kg
Total Mass 730.00 kg
Length 0.30 m
Diameter 4.10 m
Span 29.00 m
Shape Box + pan
Manufacturer SPXS
Bus Type Starlink V2M
Phase Status In Orbit
Owner/State SPXS/US

Most Searched